Location: Spaichingen
(48.0400°N, 8.4300°E)
Time: 00:29:48
(UTC+02:00)

Tiangong 2 - Pass Details

Date: 21 May 2019
Orbit: 377 x 388 km, 42.8° (Epoch: 15 June)

Event Time Altitude Azimuth Distance (km) Brightness Sun altitude
Rises 23:33:03 0° 253° (WSW) 2,232 5.1 -17.4°
Reaches altitude 10° 23:35:14 10° 243° (WSW) 1,381 3.9 -17.6°
Enters shadow 23:36:04 16° 234° (SW) 1,092 3.2 -17.6°
